time_stamp(utc),avg(mph),gust(mph),direction(deg),12m_air_temp(f),sonic_u(cm/s),sonic_v(cm/s),sonic_w(cm/s),pressure,2m_air_temp(f),pyranometer(W/m^2)
"2018-09-25 00:02:07+00",29.3,32.3,,66.4,1324,5,66,1028.75,65.9,0
"2018-09-25 00:07:07+00",27.2,32.2,,66.3,1228,83,64,1028.88,66,0
"2018-09-25 00:12:07+00",30.4,34.4,,66.3,1346,234,72,1028.8,66.1,0
"2018-09-25 00:17:07+00",24.9,27.9,,66.4,1117,24,61,1028.76,66.1,0
"2018-09-25 00:22:07+00",29.6,35.6,,66.3,1327,117,64,1028.93,66.1,0
"2018-09-25 00:27:07+00",29.0,33.0,,66.4,1308,41,65,1028.89,66.1,0
"2018-09-25 00:32:07+00",31.1,33.1,,66.4,1378,209,77,1028.83,66.2,0
"2018-09-25 00:37:07+00",28.7,31.7,,66.5,1280,150,64,1028.92,66.2,0
"2018-09-25 00:42:07+00",29.8,33.8,,66.6,1329,123,70,1028.98,66.3,0
"2018-09-25 00:47:07+00",30.5,34.5,,66.7,1381,-7,53,1028.86,66.4,0
"2018-09-25 00:52:07+00",25.9,29.9,,66.8,1160,69,63,1029.02,66.4,0
"2018-09-25 00:57:07+00",30.7,34.7,,66.7,1371,93,60,1029.01,66.4,0
"2018-09-25 01:02:07+00",27.8,29.8,,66.7,1243,109,73,1029.02,66.4,0
"2018-09-25 01:07:07+00",29.7,32.7,,66.8,1324,38,66,1029.02,66.5,0
"2018-09-25 01:12:07+00",28.6,33.6,,66.7,1283,150,67,1028.99,66.5,0
"2018-09-25 01:17:07+00",27.6,31.6,,66.8,1239,129,60,1029.06,66.5,0
"2018-09-25 01:22:07+00",29.9,32.9,,66.8,1339,97,63,1029.12,66.5,0
"2018-09-25 01:27:07+00",27.2,30.2,,66.8,1207,138,63,1029.26,66.6,0
"2018-09-25 01:32:07+00",28.3,30.3,,66.8,1250,175,70,1029.24,66.6,0
"2018-09-25 01:37:07+00",29.1,31.1,,66.9,1310,77,65,1029.2,66.6,0
"2018-09-25 01:42:07+00",31.1,35.1,,66.9,1391,3,57,1029.08,66.6,0
"2018-09-25 01:47:07+00",28.2,34.2,,66.9,1257,58,67,1028.99,66.6,0
"2018-09-25 01:52:07+00",31.0,34.0,,66.8,1385,142,68,1029.02,66.6,0
"2018-09-25 01:57:07+00",28.4,31.4,,67,1262,56,54,1029.01,66.6,0
"2018-09-25 02:02:07+00",28.2,32.2,,67,1267,48,53,1029,66.7,0
"2018-09-25 02:07:07+00",29.1,31.1,,67,1302,94,74,1029.03,66.8,0
"2018-09-25 02:12:07+00",30.5,33.5,,67,1362,123,57,1028.99,66.7,0
"2018-09-25 02:17:07+00",28.1,33.1,,67.2,1274,-28,47,1029.01,66.8,0
"2018-09-25 02:22:07+00",27.1,30.1,,67.2,1216,-35,42,1029.07,66.8,0
"2018-09-25 02:27:07+00",30.2,35.2,,67.1,1348,59,69,1028.95,66.8,0
"2018-09-25 02:32:07+00",27.5,31.5,,67.2,1234,-58,50,1029.02,66.9,0
"2018-09-25 02:37:07+00",28.9,32.9,,67.1,1307,21,58,1028.9,66.8,0
"2018-09-25 02:42:07+00",30.2,32.2,,67.1,1341,117,65,1028.88,66.8,0
"2018-09-25 02:47:07+00",29.0,32.0,,67.2,1302,95,66,1028.93,66.8,0
"2018-09-25 02:52:07+00",26.2,29.2,,67.1,1164,204,69,1028.86,66.8,0
"2018-09-25 02:57:07+00",23.2,25.2,,67.2,1043,69,70,1028.8,66.8,0
"2018-09-25 03:02:07+00",28.1,30.1,,67.3,1266,-42,61,1028.83,66.8,0
"2018-09-25 03:07:07+00",28.2,30.2,,67.2,1266,106,51,1028.81,66.8,0
"2018-09-25 03:12:07+00",26.0,29.0,,67.2,1170,52,56,1028.87,66.8,0
"2018-09-25 03:17:07+00",27.1,31.1,,67.2,1224,118,62,1028.92,66.8,0
"2018-09-25 03:22:07+00",23.3,29.3,,67.3,1054,73,49,1028.97,66.9,0
"2018-09-25 03:27:07+00",24.0,26.0,,67.2,1078,55,59,1028.95,66.8,0
"2018-09-25 03:32:07+00",25.1,29.1,,67.2,1113,141,69,1028.81,66.8,0
"2018-09-25 03:37:07+00",24.9,28.9,,67.2,1116,119,61,1028.8,66.8,0
"2018-09-25 03:42:07+00",27.2,30.2,,67.3,1219,45,57,1028.73,66.8,0
"2018-09-25 03:47:07+00",25.3,29.3,,67.4,1131,107,56,1028.78,66.9,0
"2018-09-25 03:52:07+00",26.3,30.3,,67.3,1179,144,52,1028.72,66.9,0
"2018-09-25 03:57:07+00",25.3,28.3,,67.4,1138,108,19,1028.77,67,0
"2018-09-25 04:02:07+00",24.7,31.7,,67.4,1097,189,72,1028.79,67,0
"2018-09-25 04:07:07+00",27.5,31.5,,67.5,1226,110,34,1028.76,67,0
"2018-09-25 04:12:07+00",24.5,28.5,,67.6,1102,17,53,1028.77,67.1,0
"2018-09-25 04:17:07+00",26.1,29.1,,67.5,1173,39,22,1028.73,67.1,0
"2018-09-25 04:22:07+00",27.1,30.1,,67.6,1221,-33,40,1028.73,67.2,0
"2018-09-25 04:27:07+00",23.6,27.6,,67.5,1054,153,49,1028.69,67.2,0
"2018-09-25 04:32:07+00",27.4,33.4,,67.7,1239,77,45,1028.45,67.2,0
"2018-09-25 04:37:07+00",24.9,27.9,,67.8,1119,31,62,1028.46,67.3,0
"2018-09-25 04:42:07+00",24.4,27.4,,67.9,1092,-56,33,1028.32,67.3,0
"2018-09-25 04:47:07+00",27.4,30.4,,67.6,1215,151,65,1028.28,67.3,0
"2018-09-25 04:52:07+00",28.6,32.6,,67.6,1409,-111,177,1028.2,67,0
"2018-09-25 04:57:07+00",23.6,28.6,,67.8,1058,13,45,1028.09,67.1,0
"2018-09-25 05:02:07+00",25.4,32.4,,67.8,1435,-466,390,1028.06,67.3,0
"2018-09-25 05:07:07+00",27.1,31.1,,67.8,1444,-669,479,1027.94,67.3,0
"2018-09-25 05:12:07+00",24.2,28.2,,67.9,1678,-1103,647,1027.86,67.4,0
"2018-09-25 05:17:07+00",23.3,27.3,,68.1,2155,-1997,1145,1027.85,67.6,0
"2018-09-25 05:32:07+00",25.1,28.1,,67.7,16329,0,286,1027.8,67.4,-0.1
"2018-09-25 05:37:07+00",26.1,31.1,,67.7,2121,-2008,1151,1027.74,67.3,0
"2018-09-25 05:42:07+00",25.7,28.7,,67.6,1709,-1070,579,1027.72,67.2,0
"2018-09-25 05:47:07+00",24.3,26.3,,67.7,2042,-1816,1029,1027.73,67.2,0
"2018-09-25 05:52:07+00",26.5,30.5,,67.7,2248,-1944,1132,1027.61,67.3,0
"2018-09-25 05:57:07+00",21.5,24.5,,67.8,1542,-1126,636,1027.7,67.3,0
"2018-09-25 06:02:07+00",26.6,29.6,,68,2957,-3290,1763,1027.59,67.5,0
"2018-09-25 06:07:07+00",23.7,27.7,,68.1,2606,-3032,1674,1027.58,67.7,0
"2018-09-25 06:22:07+00",21.5,25.5,,67.9,16315,0,255,1027.38,67.6,-0.1
"2018-09-25 06:27:07+00",23.8,28.8,,68,2397,-2467,1385,1027.34,67.5,0
"2018-09-25 06:32:07+00",25.4,29.4,,67.9,16306,0,273,1027.08,67.4,-0.1
"2018-09-25 06:37:07+00",26.4,31.4,,67.6,1164,-175,42,1026.92,67.1,0
"2018-09-25 06:42:07+00",25.4,29.4,,67.6,848,-202,152,1026.95,67.1,0
"2018-09-25 06:47:07+00",22.3,27.3,,67.5,794,-188,140,1026.99,67,0
"2018-09-25 06:52:07+00",26.3,29.3,,67.3,1144,-26,65,1026.99,66.8,0
"2018-09-25 06:57:07+00",25.7,28.7,,67.5,1118,-94,30,1026.86,66.8,0
"2018-09-25 07:02:07+00",23.1,28.1,,67.7,1025,-131,23,1026.82,67,0
"2018-09-25 07:07:07+00",21.0,25.0,,67.6,1020,-236,127,1026.81,67,0
"2018-09-25 07:12:07+00",23.7,27.7,,67.6,1041,-43,58,1026.68,67,0
"2018-09-25 07:17:07+00",23.3,27.3,,67.7,1086,17,109,1026.56,67.1,0
"2018-09-25 07:22:07+00",23.9,26.9,,67.8,2101,-1770,1006,1026.48,67.1,0
"2018-09-25 07:27:07+00",24.5,27.5,,67.9,2708,-2828,1644,1026.33,67.2,0
"2018-09-25 07:32:07+00",27.3,31.3,,68.1,1520,-475,303,1026.15,67.3,0
"2018-09-25 07:37:07+00",23.0,28.0,,68.1,1035,-83,66,1026.1,67.5,0
"2018-09-25 07:42:07+00",22.7,27.7,,67.9,1001,-27,51,1026.01,67.3,0
"2018-09-25 07:47:07+00",23.9,26.9,,68,1160,-176,133,1025.77,67.4,0
"2018-09-25 07:52:07+00",28.0,32.0,,68.1,1756,-893,547,1025.73,67.4,0
"2018-09-25 07:57:07+00",25.4,28.4,,68.2,1310,-391,202,1025.7,67.5,0
"2018-09-25 08:02:07+00",23.0,27.0,,68.1,1022,-47,80,1025.7,67.6,0
"2018-09-25 08:07:07+00",25.8,29.8,,68,1419,-629,393,1025.63,67.5,0
"2018-09-25 08:22:07+00",27.4,30.4,,68,16280,0,276,1025.47,67.5,-0.1
"2018-09-25 08:27:07+00",23.5,25.5,,68.1,1327,-605,292,1025.46,67.5,0
"2018-09-25 08:32:07+00",28.8,32.8,,68.2,1784,-858,344,1025.37,67.5,0
"2018-09-25 08:37:07+00",25.3,28.3,,68.2,1473,-220,-199,1025.42,67.5,0
"2018-09-25 08:42:07+00",23.9,27.9,,68.1,1475,-136,-203,1025.43,67.6,0
"2018-09-25 08:47:07+00",23.0,26.0,,68.2,1245,-225,-140,1025.37,67.6,0
"2018-09-25 08:52:07+00",21.3,25.3,,68.4,965,-259,-38,1025.48,67.8,0
"2018-09-25 08:57:07+00",23.8,27.8,,68.5,1523,-196,-274,1025.28,67.8,0
"2018-09-25 09:02:07+00",26.3,30.3,,68.7,1208,-236,-30,1025.14,67.9,0
"2018-09-25 09:07:07+00",24.1,31.1,,68.9,1359,-214,-167,1025.16,68,0
"2018-09-25 09:12:07+00",25.4,28.4,,69.1,1399,-319,-182,1025,68.2,0
"2018-09-25 09:17:07+00",25.8,27.8,,69.2,-340,-348,725,1024.91,68.3,0
"2018-09-25 09:22:07+00",23.3,27.3,,69.3,907,-305,43,1025.02,68.4,0
"2018-09-25 09:27:07+00",28.1,32.1,,69.3,2411,-2127,811,1024.89,68.5,0
"2018-09-25 10:02:07+00",22.5,25.5,,69.8,940,-364,22,1024.89,69,0
"2018-09-25 10:07:07+00",22.7,25.7,,69.9,953,-362,2,1024.92,69.2,0
"2018-09-25 10:12:07+00",24.0,28.0,,70,986,-432,-20,1024.83,69.3,0
"2018-09-25 10:17:07+00",24.1,28.1,,70.1,1008,-397,15,1024.74,69.4,0
"2018-09-25 10:22:07+00",25.6,29.6,,70.1,1045,-473,2,1024.69,69.5,0
"2018-09-25 10:27:07+00",21.7,26.7,,70.1,873,-417,23,1024.73,69.5,0
"2018-09-25 10:32:07+00",27.2,30.2,,70.3,1088,-512,-3,1024.66,69.6,0
"2018-09-25 10:37:07+00",26.7,32.7,,70.4,1058,-519,-5,1024.68,69.7,0
"2018-09-25 10:42:07+00",25.3,30.3,,70.4,991,-529,-4,1024.78,69.8,0
"2018-09-25 10:47:07+00",26.4,31.4,,70.4,1038,-539,-3,1024.8,69.8,0
"2018-09-25 10:52:07+00",25.3,28.3,,70.5,997,-533,2,1024.8,69.8,0
"2018-09-25 10:57:07+00",23.2,27.2,,70.6,907,-499,35,1024.88,70,0
"2018-09-25 11:02:07+00",25.0,27.0,,70.6,960,-549,-14,1024.85,70,0
"2018-09-25 11:07:07+00",26.3,30.3,,70.7,1009,-560,-2,1024.87,70.1,0
"2018-09-25 11:12:07+00",25.0,29.0,,70.7,945,-564,0,1024.87,70.1,0
"2018-09-25 11:17:07+00",22.7,26.7,,70.8,845,-545,-4,1024.99,70.2,0
"2018-09-25 11:22:07+00",26.1,29.1,,70.9,976,-618,-22,1024.96,70.2,0
"2018-09-25 11:27:07+00",25.4,28.4,,70.9,939,-616,-13,1024.9,70.3,0
"2018-09-25 11:32:07+00",24.9,26.9,,70.9,907,-616,7,1024.87,70.3,0
"2018-09-25 11:37:07+00",22.9,25.9,,70.9,833,-587,0,1024.84,70.4,0
"2018-09-25 11:42:07+00",25.7,28.7,,71,921,-670,-5,1024.8,70.4,0
"2018-09-25 11:47:07+00",27.5,31.5,,71.1,980,-728,-20,1024.68,70.5,0
"2018-09-25 11:52:07+00",25.7,28.7,,71.2,908,-696,-4,1024.7,70.6,0
"2018-09-25 11:57:07+00",25.5,29.5,,71.3,909,-675,-2,1024.75,70.7,0
"2018-09-25 12:02:07+00",21.2,24.2,,71.3,723,-576,23,1024.78,70.7,0.6
"2018-09-25 12:07:07+00",24.5,28.5,,71.5,842,-686,6,1024.75,70.9,2.8
"2018-09-25 12:12:07+00",24.8,28.8,,71.6,849,-688,1,1024.83,71,10.2
"2018-09-25 12:17:07+00",24.1,27.1,,71.6,828,-687,15,1024.75,71.1,25.2
"2018-09-25 12:22:07+00",25.3,29.3,,71.7,840,-741,-2,1024.74,71.2,31.2
"2018-09-25 12:27:07+00",25.1,28.1,,71.8,841,-723,-9,1024.81,71.3,25.5
"2018-09-25 12:32:07+00",23.8,27.8,,71.9,805,-675,-1,1024.83,71.4,23.6
"2018-09-25 12:37:07+00",26.6,29.6,,71.9,877,-778,-20,1024.78,71.4,13.7
"2018-09-25 12:42:07+00",23.3,25.3,,71.9,776,-676,-3,1024.76,71.4,28.9
"2018-09-25 12:47:07+00",22.7,25.7,,72,765,-643,11,1024.78,71.5,44.6
"2018-09-25 12:52:07+00",23.8,27.8,,72,764,-726,-1,1024.82,71.6,60.2
"2018-09-25 12:57:07+00",23.8,26.8,,72.1,748,-741,3,1024.85,71.7,67.1
"2018-09-25 13:02:07+00",24.5,26.5,,72.2,721,-791,-7,1024.85,71.8,59
"2018-09-25 13:07:07+00",24.6,28.6,,72.3,720,-801,-12,1024.89,71.9,53.5
"2018-09-25 13:12:07+00",24.2,27.2,,72.3,726,-777,10,1024.91,72,70.9
"2018-09-25 13:17:07+00",24.6,29.6,,72.4,727,-811,-16,1024.93,72,61.9
"2018-09-25 13:22:07+00",23.5,25.5,,72.4,659,-791,-15,1024.89,72.1,85.9
"2018-09-25 13:27:07+00",23.9,25.9,,72.4,643,-814,-19,1024.88,72.2,106.4
"2018-09-25 13:32:07+00",21.5,23.5,,72.4,585,-743,-10,1024.92,72.2,150
"2018-09-25 13:37:07+00",23.2,28.2,,72.5,616,-802,-13,1024.92,72.6,220.4
"2018-09-25 13:42:07+00",22.9,25.9,,72.5,544,-838,-30,1024.96,72.7,136.4
"2018-09-25 13:47:07+00",24.0,26.0,,72.5,624,-865,-9,1024.91,72.4,82.3
"2018-09-25 13:52:07+00",23.9,25.9,,72.5,593,-856,-10,1024.85,72.4,69.6
"2018-09-25 13:57:07+00",22.0,25.0,,72.5,554,-799,-12,1024.86,72.4,239
"2018-09-25 14:02:07+00",23.6,26.6,,72.6,587,-853,-30,1024.78,72.7,208.1
"2018-09-25 14:07:07+00",22.3,24.3,,72.7,559,-792,1,1024.77,72.8,188.4
"2018-09-25 14:12:07+00",23.4,26.4,,72.7,622,-820,-6,1024.73,73,308.9
"2018-09-25 14:17:07+00",22.5,25.5,,72.8,543,-812,-22,1024.73,73.2,195.1
"2018-09-25 14:22:07+00",21.0,24.0,,72.8,559,-729,12,1024.73,73.2,368.3
"2018-09-25 14:27:07+00",18.2,21.2,,72.9,336,-720,-14,1024.85,73.1,100.4
"2018-09-25 14:32:07+00",20.2,23.2,,73,492,-728,-7,1024.73,73.5,239.2
"2018-09-25 14:37:07+00",21.9,25.9,,72.9,510,-814,-9,1024.64,73.4,238.7
"2018-09-25 14:42:07+00",20.9,22.9,,72.9,500,-769,-8,1024.63,73.3,175.7
"2018-09-25 14:47:07+00",20.9,21.9,,72.9,450,-803,-5,1024.77,73.2,215.2
"2018-09-25 14:52:07+00",19.9,23.9,,73,427,-754,-9,1024.73,73.3,241.6
"2018-09-25 14:57:07+00",19.9,21.9,,73,444,-750,4,1024.68,73.5,202.3
"2018-09-25 15:02:07+00",19.4,20.4,,73.1,406,-744,-8,1024.73,73.6,290.6
"2018-09-25 15:07:07+00",20.7,25.7,,73.1,442,-790,-8,1024.67,73.7,275.4
"2018-09-25 15:12:07+00",20.3,23.3,,73.2,432,-781,-15,1024.66,74.1,265.9
"2018-09-25 15:17:07+00",19.8,23.8,,73.1,370,-775,-15,1024.73,73.8,171
"2018-09-25 15:22:07+00",21.8,24.8,,73.2,463,-839,-17,1024.59,73.8,208.1
"2018-09-25 15:27:07+00",21.7,23.7,,73.2,449,-829,-13,1024.67,73.9,195.8
"2018-09-25 15:32:07+00",21.6,24.6,,73.2,470,-826,-12,1024.52,73.7,169
"2018-09-25 15:37:07+00",20.4,23.4,,73.2,358,-825,7,1024.44,73.8,237.7
"2018-09-25 15:42:07+00",21.2,25.2,,73.3,389,-849,-10,1024.37,74,401.2
"2018-09-25 15:47:07+00",21.5,25.5,,73.5,421,-823,11,1024.19,74.4,377
"2018-09-25 15:52:07+00",21.5,24.5,,73.7,415,-855,7,1024.03,75,463.8
"2018-09-25 15:57:07+00",22.3,25.3,,73.7,430,-860,-12,1023.93,75.2,460.5
"2018-09-25 16:02:07+00",23.0,25.0,,73.6,429,-912,-26,1023.81,75.2,405.7
"2018-09-25 16:07:07+00",21.5,24.5,,73.8,392,-864,-32,1023.88,75.1,276.3
"2018-09-25 16:12:07+00",21.8,26.8,,73.4,379,-860,-14,1023.88,74.5,179.8
"2018-09-25 16:17:07+00",19.9,23.9,,73.4,345,-790,-18,1023.89,74.3,253.2
"2018-09-25 16:22:07+00",20.4,23.4,,73.5,346,-817,-13,1023.86,74.4,307.6
"2018-09-25 16:27:07+00",18.5,21.5,,73.7,341,-741,-3,1023.82,75,406.8
"2018-09-25 16:32:07+00",21.5,25.5,,73.9,335,-877,-21,1023.82,75.4,316
"2018-09-25 16:37:07+00",21.1,26.1,,73.9,332,-854,-16,1023.71,75.4,424
"2018-09-25 16:42:07+00",21.0,23.0,,73.6,359,-840,-26,1023.7,75.3,468.3
"2018-09-25 16:47:07+00",16.6,21.6,,73.7,140,-694,-18,1023.79,75.3,301.8
"2018-09-25 16:52:07+00",20.3,24.3,,74,316,-813,-16,1023.67,75.4,283
"2018-09-25 16:57:07+00",19.0,21.0,,74,337,-756,10,1023.63,75.4,336.8
"2018-09-25 17:02:07+00",17.8,21.8,,74.3,286,-709,1,1023.65,75.9,419.4
"2018-09-25 17:07:07+00",19.9,21.9,,74.1,331,-794,-8,1023.49,75.7,198.3
"2018-09-25 17:12:07+00",20.3,23.3,,73.9,276,-839,-18,1023.39,75.4,455.4
"2018-09-25 17:17:07+00",20.1,23.1,,74.1,349,-798,-12,1023.36,75.7,367.6
"2018-09-25 17:22:07+00",17.8,19.8,,74.2,209,-731,-13,1023.44,75.6,285.8
"2018-09-25 17:27:07+00",20.1,22.1,,74.3,295,-815,-42,1023.27,75.8,534.3
"2018-09-25 17:32:07+00",18.8,20.8,,74.5,292,-754,-9,1023.25,76.4,510.5
"2018-09-25 17:37:07+00",19.1,23.1,,74.8,229,-799,-33,1023.08,76.7,338
"2018-09-25 17:42:07+00",16.4,21.4,,74.8,222,-673,8,1022.97,76.4,322.6
"2018-09-25 17:47:07+00",17.1,20.1,,74.7,305,-681,6,1022.99,76.1,321.8
"2018-09-25 17:52:07+00",17.2,19.2,,74.4,283,-693,5,1022.92,76,453.1
"2018-09-25 17:57:07+00",18.1,21.1,,74.2,262,-733,-39,1022.86,76.1,393.1
"2018-09-25 18:02:07+00",14.6,18.6,,74.8,193,-615,10,1022.81,76.6,378.5
"2018-09-25 18:07:07+00",19.0,22.0,,74.7,256,-771,-31,1022.74,76.4,263.1
"2018-09-25 18:12:07+00",15.2,18.2,,74.7,206,-621,-8,1022.74,76.3,384.9
"2018-09-25 18:17:07+00",16.4,20.4,,74.5,238,-660,18,1022.61,76.1,241.7
"2018-09-25 18:22:07+00",15.5,18.5,,74.4,188,-651,-22,1022.61,75.9,355.7
"2018-09-25 18:27:07+00",13.9,15.9,,74.9,190,-560,14,1022.58,76.5,389.7
"2018-09-25 18:32:07+00",15.7,19.7,,74.9,172,-650,-20,1022.57,76.6,382.3
"2018-09-25 18:37:07+00",14.4,16.4,,75.1,131,-595,-3,1022.5,76.9,409.9
"2018-09-25 18:42:07+00",13.5,15.5,,74.7,116,-565,-5,1022.47,76.1,51.9
"2018-09-25 18:47:07+00",13.7,16.7,,74.1,155,-553,3,1022.45,75.2,72.2
"2018-09-25 18:52:07+00",15.1,17.1,,74,113,-638,-29,1022.4,74.9,67.9
"2018-09-25 18:57:07+00",9.3,11.3,,73.9,-1,-387,-7,1022.5,74.5,30.1
"2018-09-25 19:02:07+00",9.1,11.1,,73.7,51,-378,-1,1022.45,74.2,59.4
"2018-09-25 19:07:07+00",12.0,14.0,,73.8,97,-498,-35,1022.27,74.4,301.8
"2018-09-25 19:12:07+00",12.8,18.8,,74,57,-554,-13,1022.23,74.4,43.2
"2018-09-25 19:17:07+00",12.5,15.5,,73.8,64,-522,-11,1022.15,74.1,70
"2018-09-25 19:22:07+00",12.4,16.4,,73.9,127,-511,14,1022.03,74.2,90.8
"2018-09-25 19:27:07+00",17.6,19.6,,74.1,174,-732,-31,1021.85,74.4,215.3
"2018-09-25 19:32:07+00",15.6,18.6,,74.4,143,-664,0,1021.8,74.8,300.4
"2018-09-25 19:37:07+00",14.6,19.6,,74.9,103,-602,-9,1021.71,75.5,283.2
"2018-09-25 19:42:07+00",17.6,20.6,,74.8,202,-724,-1,1021.62,75.7,278.9
"2018-09-25 19:47:07+00",13.1,18.1,,74.7,108,-558,-4,1021.61,75.5,113.9
"2018-09-25 19:52:07+00",14.5,18.5,,74.6,95,-619,-8,1021.75,75.5,312.2
"2018-09-25 19:57:07+00",16.2,18.2,,74.8,124,-681,-31,1021.61,75.8,279.9
"2018-09-25 20:02:07+00",14.7,16.7,,74.9,109,-612,-3,1021.51,76,242.1
"2018-09-25 20:07:07+00",15.5,19.5,,74.7,123,-642,-4,1021.47,75.8,245.9
"2018-09-25 20:12:07+00",13.1,18.1,,75,118,-554,-3,1021.42,76,199.9
"2018-09-25 20:17:07+00",15.5,18.5,,74.9,72,-661,-29,1021.42,75.8,114.4
"2018-09-25 20:22:07+00",12.3,16.3,,74.7,70,-542,4,1021.49,75.3,107.1
"2018-09-25 20:27:07+00",12.3,16.3,,74.7,85,-509,19,1021.41,75.3,88.7
"2018-09-25 20:32:07+00",14.9,18.9,,74.5,61,-635,-30,1021.29,75.2,123.3
"2018-09-25 20:37:07+00",12.8,14.8,,74.5,55,-545,-33,1021.3,75.1,59.8
"2018-09-25 20:42:07+00",13.9,17.9,,74.3,43,-589,-30,1021.24,74.9,64.7
"2018-09-25 20:47:07+00",11.9,14.9,,74.2,54,-509,8,1021.2,74.7,55.2
"2018-09-25 20:52:07+00",13.1,17.1,,74,61,-562,-22,1021.21,74.5,47.1
"2018-09-25 20:57:07+00",11.3,15.3,,74,82,-483,-2,1021.12,74.5,62.5
"2018-09-25 21:02:07+00",12.0,16.0,,74,78,-529,12,1021.11,74.4,40.7
"2018-09-25 21:07:07+00",10.0,13.0,,73.9,74,-427,22,1021.17,74.4,30
"2018-09-25 21:12:07+00",11.4,14.4,,73.7,111,-548,36,1021.15,74.2,31.3
"2018-09-25 21:17:07+00",12.8,14.8,,73.6,71,-554,-24,1021.19,74.1,30.7
"2018-09-25 21:22:07+00",10.7,13.7,,73.6,479,-1171,391,1021.05,74,51.2
"2018-09-25 21:27:07+00",10.6,15.6,,73.6,635,-1423,581,1021.15,74,15.3
"2018-09-25 21:32:07+00",11.8,14.8,,73.4,1347,-2665,1224,1021.07,73.8,8.3
"2018-09-25 21:37:07+00",12.9,15.9,,73.3,1731,-3378,1587,1021,73.7,11.6
"2018-09-25 21:42:07+00",13.5,16.5,,73.3,1783,-3496,1721,1020.88,73.6,13.7
"2018-09-25 21:47:07+00",13.7,16.7,,73.3,1630,-3252,1525,1020.84,73.6,11.4
"2018-09-25 21:52:07+00",14.6,18.6,,73.4,2040,-3925,1838,1020.67,73.6,12.3
"2018-09-25 21:57:07+00",14.9,18.9,,73.4,1648,-3274,1627,1020.64,73.6,6.2
"2018-09-25 22:02:07+00",14.2,17.2,,73.3,2260,-4341,2148,1020.6,73.5,0.9
"2018-09-25 22:07:07+00",13.4,17.4,,73.3,1983,-3897,1899,1020.51,73.4,0.3
"2018-09-25 22:12:07+00",12.0,14.0,,73.3,2098,-4016,1916,1020.51,73.4,0.4
"2018-09-25 22:17:07+00",13.7,16.7,,73.3,1330,-2626,1310,1020.54,73.4,0
"2018-09-25 22:22:07+00",13.9,18.9,,73.4,2136,-4112,2016,1020.66,73.4,0
"2018-09-25 22:27:07+00",13.0,17.0,,73.5,2187,-4201,2076,1020.68,73.5,0
"2018-09-25 22:32:07+00",10.5,14.5,,73.4,1770,-3380,1666,1020.76,73.4,0
"2018-09-25 22:37:07+00",11.2,15.2,,73.3,2042,-3987,1962,1020.78,73.3,0
"2018-09-25 22:52:07+00",10.4,12.4,,73.2,803,-1791,772,1020.93,73.1,0
"2018-09-25 22:57:07+00",9.0,12.0,,73.1,150,-651,161,1020.96,73,0
"2018-09-25 23:02:07+00",10.5,13.5,,73.2,376,-1163,398,1021,73,0
"2018-09-25 23:07:07+00",10.4,12.4,,73.4,158,-823,183,1020.91,73.2,0
"2018-09-25 23:12:07+00",9.7,13.7,,73.5,96,-608,108,1020.88,73.2,0
"2018-09-25 23:17:07+00",10.5,13.5,,73.4,163,-694,120,1020.74,73.2,0
"2018-09-25 23:22:07+00",8.6,11.6,,73.4,-33,-361,-4,1020.75,73.1,0
"2018-09-25 23:27:07+00",10.4,14.4,,73.4,150,-678,154,1020.81,73.1,0
"2018-09-25 23:32:07+00",10.0,13.0,,73.4,120,-648,115,1020.86,73.2,0
"2018-09-25 23:37:07+00",8.7,11.7,,73.4,24,-384,12,1020.82,73.2,0
"2018-09-25 23:42:07+00",9.5,11.5,,73.4,-50,-401,-14,1020.9,73.2,0
"2018-09-25 23:47:07+00",9.5,12.5,,73.5,-3,-446,37,1021.02,73.3,0
"2018-09-25 23:52:07+00",6.8,10.8,,73.5,-9,-291,-2,1021.1,73.3,0
"2018-09-25 23:57:07+00",8.5,12.5,,73.6,14,-353,-16,1020.94,73.3,0
